GW4763 Weather Reports


time (UTC)temp
F
wind
direction
speed
knots
gust
knots
rain 1hr
in
rain 24hr
in
rain mn
in
humidity
%
barometer
mb
20260506232258 70 217 5.2 16.5 0.00 0.00 0.00 15
20260506231658 70 206 6.1 19.1 0.00 0.00 0.00 13
20260506231116 71 207 5.2 16.5 0.00 0.00 0.00 12
20260506230458 71 184 3.5 17.4 0.00 0.00 0.00 13
20260506225915 71 238 4.3 14.8 0.00 0.00 0.00 15
20260506225315 72 179 5.2 14.8 0.00 0.00 0.00 14
20260506224658 72 223 3.5 17.4 0.00 0.00 0.00 12
20260506224058 72 221 3.5 13.9 0.00 0.00 0.00 13
20260506223458 72 273 3.5 15.6 0.00 0.00 0.00 15
20260506222858 72 246 5.2 16.5 0.00 0.00 0.00 13
20260506222258 72 198 4.3 13.9 0.00 0.00 0.00 15
20260506221658 72 184 6.1 16.5 0.00 0.00 0.00 16
20260506221058 72 246 8.7 20.9 0.00 0.00 0.00 15
20260506220458 72 242 6.1 15.6 0.00 0.00 0.00 16
20260506215859 73 202 6.1 13.9 0.00 0.00 0.00 15
20260506215259 72 207 6.1 16.5 0.00 0.00 0.00 17
20260506214658 73 180 6.1 19.1 0.00 0.00 0.00 15
20260506214058 72 210 0.9 16.5 0.00 0.00 0.00 17
20260506213515 72 221 9.6 14.8 0.00 0.00 0.00 16
20260506212916 73 243 3.5 16.5 0.00 0.00 0.00 15
20260506212315 73 235 2.6 14.8 0.00 0.00 0.00 16
20260506211658 73 228 4.3 17.4 0.00 0.00 0.00 17
20260506211058 72 199 6.1 18.2 0.00 0.00 0.00 16
20260506210459 73 259 9.6 16.5 0.00 0.00 0.00 15
20260506205858 72 225 5.2 14.8 0.00 0.00 0.00 16
20260506205258 71 264 7.0 19.1 0.00 0.00 0.00 16
20260506204658 72 210 2.6 16.5 0.00 0.00 0.00 15
20260506204058 72 248 9.6 19.1 0.00 0.00 0.00 15
20260506203458 72 260 6.1 20.0 0.00 0.00 0.00 13
20260506202915 72 271 7.0 20.0 0.00 0.00 0.00 15
20260506202258 72 214 6.1 26.1 0.00 0.00 0.00 16
20260506201658 72 267 3.5 17.4 0.00 0.00 0.00 17
20260506201058 71 203 5.2 19.1 0.00 0.00 0.00 16
20260506200458 72 250 3.5 18.2 0.00 0.00 0.00 18
20260506195858 73 271 3.5 15.6 0.00 0.00 0.00 18
20260506195258 73 222 4.3 14.8 0.00 0.00 0.00 16
20260506194715 71 222 4.3 18.2 0.00 0.00 0.00 17
20260506194058 71 270 4.3 18.2 0.00 0.00 0.00 19
20260506193458 71 237 8.7 18.2 0.00 0.00 0.00 17
20260506192858 71 258 10.4 18.2 0.00 0.00 0.00 16
20260506192315 71 267 8.7 19.1 0.00 0.00 0.00 16
20260506191658 71 259 10.4 20.9 0.00 0.00 0.00 16
20260506191059 71 252 7.0 20.9 0.00 0.00 0.00 15
20260506190458 71 284 7.8 17.4 0.00 0.00 0.00 15
20260506185858 70 253 5.2 22.6 0.00 0.00 0.00 18
20260506185258 70 267 7.0 15.6 0.00 0.00 0.00 16
20260506184658 71 208 7.0 16.5 0.00 0.00 0.00 18
20260506184058 70 239 5.2 21.7 0.00 0.00 0.00 17
20260506183458 70 285 7.0 18.2 0.00 0.00 0.00 15
20260506182932 70 234 6.1 14.8 0.00 0.00 0.00 18
20260506182258 69 243 6.1 11.3 0.00 0.00 0.00 18
20260506181658 69 221 4.3 20.0 0.00 0.00 0.00 22
20260506181058 69 260 7.8 19.1 0.00 0.00 0.00 18
20260506180458 69 232 3.5 16.5 0.00 0.00 0.00 21
20260506175858 69 248 5.2 18.2 0.00 0.00 0.00 19
20260506175258 69 213 7.8 14.8 0.00 0.00 0.00 19
20260506174658 69 219 4.3 14.8 0.00 0.00 0.00 23
20260506174058 69 275 5.2 19.1 0.00 0.00 0.00 20
20260506173458 67 310 7.8 17.4 0.00 0.00 0.00 22
20260506172858 67 270 7.0 18.2 0.00 0.00 0.00 22
20260506172258 69 263 4.3 14.8 0.00 0.00 0.00 21
20260506171658 67 265 6.1 15.6 0.00 0.00 0.00 23
20260506171058 66 259 4.3 18.2 0.00 0.00 0.00 22
20260506170458 66 222 5.2 19.1 0.00 0.00 0.00 25
20260506165858 66 284 6.1 13.0 0.00 0.00 0.00 23
20260506165258 65 281 3.5 13.9 0.00 0.00 0.00 26
20260506164658 65 274 6.1 20.0 0.00 0.00 0.00 25
20260506164115 64 273 7.8 17.4 0.00 0.00 0.00 25
20260506163458 64 277 4.3 20.0 0.00 0.00 0.00 27
20260506162858 63 266 6.1 16.5 0.00 0.00 0.00 27
20260506162258 64 281 7.8 20.0 0.00 0.00 0.00 25
20260506161658 63 249 5.2 17.4 0.00 0.00 0.00 28
20260506161058 63 267 9.6 20.0 0.00 0.00 0.00 27
20260506160458 62 248 7.0 20.0 0.00 0.00 0.00 27
20260506155858 62 248 3.5 13.0 0.00 0.00 0.00 30
20260506155315 62 243 6.1 16.5 0.00 0.00 0.00 30
20260506154658 62 246 3.5 13.9 0.00 0.00 0.00 33
20260506154058 61 300 3.5 13.9 0.00 0.00 0.00 34
20260506153458 61 276 7.0 18.2 0.00 0.00 0.00 32
20260506152949 60 225 5.2 16.5 0.00 0.00 0.00 34
20260506152258 60 246 6.1 15.6 0.00 0.00 0.00 36
20260506151658 60 271 3.5 16.5 0.00 0.00 0.00 37
20260506151058 59 259 3.5 13.0 0.00 0.00 0.00 40
20260506150458 59 249 5.2 11.3 0.00 0.00 0.00 39
20260506145859 59 220 2.6 10.4 0.00 0.00 0.00 38
20260506145315 58 266 3.5 9.6 0.00 0.00 0.00 41
20260506144659 58 224 3.5 11.3 0.00 0.00 0.00 43
20260506144058 58 224 2.6 7.8 0.00 0.00 0.00 43
20260506143458 57 233 3.5 10.4 0.00 0.00 0.00 44
20260506142859 56 243 3.5 12.2 0.00 0.00 0.00 45
20260506142258 56 227 2.6 10.4 0.00 0.00 0.00 46
20260506141658 56 275 2.6 7.0 0.00 0.00 0.00 47
20260506141058 55 213 2.6 7.0 0.00 0.00 0.00 46
20260506140458 55 170 0.0 5.2 0.00 0.00 0.00 48
20260506135859 55 316 2.6 7.8 0.00 0.00 0.00 46
20260506135258 54 246 2.6 6.1 0.00 0.00 0.00 48
20260506134659 54 233 2.6 4.3 0.00 0.00 0.00 49
20260506134058 53 243 0.9 7.0 0.00 0.00 0.00 49
20260506133458 53 244 0.9 7.0 0.00 0.00 0.00 50
20260506132915 52 242 1.7 6.1 0.00 0.00 0.00 51
20260506132258 51 220 3.5 7.0 0.00 0.00 0.00 54
20260506131658 50 213 1.7 6.1 0.00 0.00 0.00 55
20260506131058 49 238 1.7 7.0 0.00 0.00 0.00 59
20260506130458 47 264 2.6 3.5 0.00 0.00 0.00 63
20260506125858 45 243 1.7 3.5 0.00 0.00 0.00 68
20260506125258 44 211 0.9 6.1 0.00 0.00 0.00 72
20260506124715 37 249 2.6 3.5 0.00 0.00 0.00 88
20260506124058 35 265 0.9 3.5 0.00 0.00 0.00 89
20260506123458 34 271 0.0 3.5 0.00 0.00 0.00 89
20260506122858 33 247 0.0 2.6 0.00 0.00 0.00 89
20260506122258 33 270 0.9 3.5 0.00 0.00 0.00 89
20260506121659 33 277 0.9 3.5 0.00 0.00 0.00 89
20260506121058 33 250 0.0 2.6 0.00 0.00 0.00 88
20260506120458 33 253 0.0 2.6 0.00 0.00 0.00 87
20260506115859 34 270 0.0 3.5 0.00 0.00 0.00 87
20260506115258 34 283 0.0 3.5 0.00 0.00 0.00 86
20260506114658 34 239 1.7 2.6 0.00 0.00 0.00 86
20260506114100 35 255 0.0 3.5 0.00 0.00 0.00 86
20260506113459 35 271 1.7 2.6 0.00 0.00 0.00 85
20260506112858 35 270 0.0 2.6 0.00 0.00 0.00 84
20260506112258 35 280 2.6 2.6 0.00 0.00 0.00 85
20260506111658 36 274 0.0 3.5 0.00 0.00 0.00 83
20260506111058 36 268 2.6 2.6 0.00 0.00 0.00 82
20260506110458 37 247 0.0 3.5 0.00 0.00 0.00 85
20260506105858 35 238 0.0 2.6 0.00 0.00 0.00 90
20260506105315 34 258 0.0 3.5 0.00 0.00 0.00 89
20260506104658 34 184 0.0 2.6 0.00 0.00 0.00 89
20260506104058 34 250 0.0 2.6 0.00 0.00 0.00 89
20260506103458 35 228 0.0 2.6 0.00 0.00 0.00 88
20260506102858 35 175 0.0 0.9 0.00 0.00 0.00 87
20260506102258 35 237 0.0 2.6 0.00 0.00 0.00 86
20260506101059 36 233 0.0 2.6 0.00 0.00 0.00 84
20260506100459 36 248 0.0 1.7 0.00 0.00 0.00 83
20260506095858 36 277 0.0 1.7 0.00 0.00 0.00 83
20260506095315 36 279 0.0 2.6 0.00 0.00 0.00 83
20260506094659 36 280 0.0 3.5 0.00 0.00 0.00 84
20260506094058 35 292 0.9 2.6 0.00 0.00 0.00 84
20260506093458 35 292 0.0 1.7 0.00 0.00 0.00 85
20260506092858 35 270 0.0 2.6 0.00 0.00 0.00 83
20260506092258 36 259 0.0 3.5 0.00 0.00 0.00 82
20260506091658 36 256 0.0 2.6 0.00 0.00 0.00 81
20260506091058 36 216 0.0 2.6 0.00 0.00 0.00 80
20260506090458 35 2 0.0 2.6 0.00 0.00 0.00 82
20260506085858 35 116 0.9 2.6 0.00 0.00 0.00 84
20260506085258 36 264 0.0 1.7 0.00 0.00 0.00 80
20260506084658 36 265 0.0 3.5 0.00 0.00 0.00 80
20260506084115 36 338 0.0 2.6 0.00 0.00 0.00 80
20260506083458 35 307 0.0 2.6 0.00 0.00 0.00 81
20260506082859 34 5 0.0 2.6 0.00 0.00 0.00 84
20260506082259 35 352 0.0 0.0 0.00 0.00 0.00 83
20260506081658 35 0 0.0 1.7 0.00 0.00 0.00 81
20260506081115 36 22 0.0 0.0 0.00 0.00 0.00 78
20260506080515 37 309 0.0 0.0 0.00 0.00 0.00 74
20260506073458 38 179 0.0 2.6 0.00 0.00 0.00 74
20260506072858 39 174 0.0 1.7 0.00 0.00 0.00 70
20260506072300 39 164 0.9 3.5 0.00 0.00 0.00 67
20260506071658 38 169 0.0 3.5 0.00 0.00 0.00 69
20260506071058 37 171 0.0 2.6 0.00 0.00 0.00 77
20260506070458 38 196 0.9 2.6 0.00 0.00 0.00 74
20260506062258 38 243 0.0 1.7 0.00 0.00 0.00 77
20260506061658 38 139 0.0 1.7 0.00 0.00 0.00 75
20260506061115 39 207 0.0 0.0 0.00 0.00 0.00 73
20260506060458 40 243 0.0 0.0 0.00 0.00 0.00 70
20260506051059 51 239 0.9 4.3 0.00 0.00 0.00 37
20260506050459 51 230 0.9 4.3 0.00 0.00 0.00 37
20260506044732 52 247 1.7 6.1 0.00 0.00 0.00 36
20260506044058 53 236 1.7 6.1 0.00 0.00 0.00 35
20260506043459 53 239 1.7 6.1 0.00 0.00 0.00 35
20260506042858 53 219 2.6 7.0 0.00 0.00 0.00 35
20260506042316 53 260 1.7 7.0 0.00 0.00 0.00 36
20260506041659 53 230 2.6 7.0 0.00 0.00 0.00 37
20260506041059 53 222 2.6 7.0 0.00 0.00 0.00 37
20260506040458 53 257 1.7 7.0 0.00 0.00 0.00 38
20260506035858 53 222 2.6 6.1 0.00 0.00 0.00 38
20260506035315 53 248 0.9 6.1 0.00 0.00 0.00 38
20260506034658 54 240 1.7 7.8 0.00 0.00 0.00 39
20260506034058 53 209 2.6 5.2 0.00 0.00 0.00 40
20260506033459 54 218 0.9 8.7 0.00 0.00 0.00 39
20260506032915 54 268 2.6 7.8 0.00 0.00 0.00 37
20260506032258 54 273 3.5 7.8 0.00 0.00 0.00 36
20260506031659 55 239 3.5 10.4 0.00 0.00 0.00 37
20260506031058 55 264 3.5 8.7 0.00 0.00 0.00 37
20260506030458 55 276 3.5 10.4 0.00 0.00 0.00 37
20260506025859 55 240 2.6 6.1 0.00 0.00 0.00 37
20260506025258 55 251 3.5 6.1 0.00 0.00 0.00 37
20260506024658 55 269 3.5 5.2 0.00 0.00 0.00 37
20260506024058 56 266 1.7 7.8 0.00 0.00 0.00 39
20260506023459 57 252 3.5 7.8 0.00 0.00 0.00 38
20260506022859 56 271 2.6 7.0 0.00 0.00 0.00 38
20260506022349 57 258 4.3 7.0 0.00 0.00 0.00 37
20260506021658 57 273 3.5 7.8 0.00 0.00 0.00 36
20260506021059 58 254 2.6 7.8 0.00 0.00 0.00 35
20260506020458 58 274 3.5 7.8 0.00 0.00 0.00 35
20260506015859 58 252 3.5 7.8 0.00 0.00 0.00 36
20260506015259 58 244 3.5 7.8 0.00 0.00 0.00 36
20260506014659 59 250 3.5 8.7 0.00 0.00 0.00 35
20260506014115 59 263 3.5 9.6 0.00 0.00 0.00 35
20260506013458 60 280 2.6 10.4 0.00 0.00 0.00 35
20260506012858 60 270 3.5 11.3 0.00 0.00 0.00 34
20260506012316 60 249 3.5 10.4 0.00 0.00 0.00 34
20260506011658 61 214 2.6 13.9 0.00 0.00 0.00 33
20260506011058 61 260 5.2 13.9 0.00 0.00 0.00 32
20260506010459 62 287 7.8 13.9 0.00 0.00 0.00 32
20260506005858 62 230 6.1 12.2 0.00 0.00 0.00 32
20260506005258 62 280 7.0 15.6 0.00 0.00 0.00 32
20260506004659 63 293 8.7 15.6 0.00 0.00 0.00 31
20260506004058 63 229 7.0 13.9 0.00 0.00 0.00 31
20260506003458 64 242 3.5 14.8 0.00 0.00 0.00 31
20260506002858 64 275 3.5 15.6 0.00 0.00 0.00 32
20260506002258 64 249 7.0 18.2 0.00 0.00 0.00 32
20260506001715 63 226 6.1 17.4 0.00 0.00 0.00 32
20260506001059 63 263 4.3 17.4 0.00 0.00 0.00 34
20260506000458 64 253 8.7 20.9 0.00 0.00 0.00 32
20260505235858 64 191 3.5 18.2 0.00 0.00 0.00 32
20260505235258 64 227 3.5 15.6 0.00 0.00 0.00 34
20260505234658 63 275 8.7 17.4 0.00 0.00 0.00 33
20260505234059 62 208 7.0 20.9 0.00 0.00 0.00 34
20260505233532 63 263 7.8 19.1 0.00 0.00 0.00 35
20260505232858 63 286 7.0 22.6 0.00 0.00 0.00 35